Terug naar catalogus

FLOCK 4Q 4

ActiefWetenschapSSO
NORAD 58327·PAYLOAD·🇺🇸 United States

Gelanceerd Nov 11, 2023 vanaf Vandenberg Space Force Base

Loading…

Volgende Passages (komende 24 uur)

TLE

VersSource: CelesTrak SupGP

Epoch: Sep 14, 2026, 12:45 UTC

1 58327C 23174BZ  26257.53138889  .00029842  00000+0  48972-3 0  2573
2 58327  97.3779 347.4454 0004915 185.3310 184.4159 15.52415072    15

Volg FLOCK 4Q 4 in realtime met AllMySat

Download on the App Store